#timestamp,LO_Frequency,Hit,StdDev 
1506470415.0,286047003.1,N
1506470415.9,286047003.1,N
1506470435.8,286047001.4,N
1506470455.6,286047006.8,Y
1506470475.4,286047007.2,P
1506470495.3,286047007.5,N
1506470515.1,286047007.5,N
1506470516.0,286047007.5,N
1506470535.8,286047005.4,N
1506470555.6,286047003.3,N
1506470575.5,286047002.7,N
1506470595.3,286046994.3,N
1506470615.1,286046995.3,N
1506470635.9,286046999.0,N
1506470655.7,286047007.1,N
1506470675.5,286047008.0,N
1506470695.4,286047011.1,N
1506470715.2,286047014.9,Y
1506470735.0,286047009.5,P
1506470735.9,286047009.5,P
1506470755.8,286047009.6,P
1506470775.6,286047011.9,Y
1506470795.4,286047003.4,P
1506470815.3,286047005.1,N
1506470835.1,286047007.0,P
1506470855.8,286047011.4,Y
1506470875.7,286047012.2,P
1506470895.5,286047014.9,P
1506470915.3,286047015.8,P
1506470935.2,286047015.5,Y
1506470955.0,286047001.9,P
1506470955.9,286047001.9,N
1506470975.7,286047003.5,N
1506470995.6,286047001.5,N
1506471015.4,286047003.7,N
1506471035.2,286047002.9,N
1506471055.1,286047004.3,N
1506471056.0,286047004.3,N
1506471075.8,286047001.3,N
1506471095.6,286047000.7,N
1506471115.5,286046996.9,N
1506471135.3,286046998.8,N
1506471155.1,286047000.7,N
1506471175.9,286047001.0,N
1506471195.7,286047000.8,N
1506471215.5,286047006.0,N
1506471235.3,286047005.6,N
1506471255.2,286047003.3,N
1506471275.0,286047005.6,N
1506471275.9,286047005.6,N
1506471295.7,286047003.5,N
1506471315.6,286047004.9,N
1506471335.4,286047004.6,N
1506471355.2,286047003.3,N
1506471375.1,286047002.4,N
1506471376.0,286047002.4,N
1506471395.8,286047000.7,N
1506471415.6,286046998.6,N
1506471435.5,286046997.7,N
1506471455.3,286046994.9,N
1506471475.1,286046993.8,N
1506471495.9,286046995.8,N
1506471515.7,286046995.5,N
1506471535.5,286046996.3,N
1506471555.3,286046993.5,N
1506471575.2,286046998.0,N
1506471595.0,286046998.5,N
1506471595.9,286046998.5,N
1506471615.7,286046998.1,N
1506471635.6,286046998.0,N
1506471655.4,286046995.2,N
1506471675.2,286046995.0,N
1506471695.1,286046996.8,N
1506471696.0,286046996.8,N
1506471715.8,286046997.3,N
1506471735.6,286046995.8,N
1506471755.5,286046994.3,N
1506471775.3,286046990.6,N
1506471795.1,286046988.6,N
1506471815.9,286046988.6,N
1506471835.7,286046989.8,N
1506471855.5,286046987.3,Y
1506471875.4,286046988.9,P
1506471895.2,286046989.7,N
1506471915.0,286046985.7,P
1506471915.9,286046985.7,Y
1506471935.8,286046997.7,P
1506471955.6,286046997.5,N
1506471975.4,286046995.8,N
1506471995.3,286046997.0,N
1506472015.1,286046993.3,N
1506472016.0,286046993.3,N
1506472035.8,286046993.7,N
1506472055.7,286046991.9,Y
1506472075.5,286047002.4,P
1506472095.3,286047000.5,N
1506472115.2,286046999.0,N
1506472135.9,286046999.5,N
1506472155.7,286046997.4,N
1506472175.6,286046997.4,N
1506472195.4,286046995.1,N
1506472215.2,286046994.5,N
1506472235.0,286046994.1,N
1506472236.0,286046994.1,N
1506472255.8,286046994.1,N
1506472275.6,286046996.0,N
1506472295.4,286046994.8,N
1506472315.3,286046994.5,N
1506472335.1,286046994.2,N
1506472355.8,286046990.7,Y
1506472375.7,286046992.2,P
1506472395.5,286046992.1,P
1506472415.3,286046992.4,P
1506472435.2,286046994.8,N
1506472455.9,286046992.7,Y
1506472475.7,286046999.6,P
1506472495.6,286046997.5,N
1506472515.4,286046997.9,N
1506472535.2,286046995.7,N
1506472555.1,286046996.8,N
1506472556.0,286046996.8,N
1506472575.8,286047000.7,N
1506472595.6,286047001.3,N
1506472615.5,286047002.8,N
1506472635.3,286047000.0,N
1506472655.1,286047001.6,N
1506472675.9,286047002.7,N
1506472695.7,286047001.1,N
1506472715.5,286047001.5,N
1506472735.3,286047006.8,N
1506472755.2,286047010.8,Y
1506472775.0,286047011.3,P
1506472775.9,286047011.3,N
1506472795.8,286047015.0,N
1506472815.6,286047015.3,N
1506472835.4,286047018.6,Y
1506472855.3,286047008.2,P
1506472875.1,286047012.0,P
1506472876.0,286047012.0,P
1506472895.8,286047008.1,Y
1506472915.7,286047005.6,P
1506472935.5,286047004.1,N
1506472955.3,286047007.4,N
1506472975.2,286047007.5,Y
1506472995.9,286047001.9,P
1506473015.7,286047005.4,N
1506473035.6,286047005.2,N
1506473055.4,286047008.8,Y
1506473075.2,286047004.4,P
1506473095.1,286047004.3,P
1506473096.0,286047004.3,P
1506473115.8,286047002.6,Y
1506473135.6,286046994.9,P
1506473155.5,286046997.6,N
1506473175.3,286047002.0,N
1506473195.1,286046996.8,N
1506473215.9,286047000.6,N
1506473235.7,286046997.8,N
1506473255.5,286046996.8,N
1506473275.4,286046996.9,N
1506473295.2,286046998.5,N
1506473315.0,286046999.2,N
1506473315.9,286046999.2,N
1506473335.8,286047000.7,N
1506473355.6,286047001.2,N
1506473375.4,286046999.0,N
1506473395.2,286047000.4,N
1506473415.1,286047004.4,N
1506473416.0,286047004.4,N
1506473435.8,286047000.1,N
1506473455.6,286047000.7,N
1506473475.5,286046997.2,N
1506473495.3,286046994.5,N
1506473515.1,286046990.5,Y
1506473535.9,286046990.7,P
1506473555.7,286046988.1,N
1506473575.5,286046988.2,N
1506473595.4,286046986.2,N
1506473615.2,286046984.7,Y
1506473635.0,286046992.6,P
1506473635.9,286046992.6,P
1506473655.8,286046988.6,P
1506473675.6,286046988.8,Y
1506473695.4,286046999.4,P
1506473715.3,286046995.2,N
1506473735.1,286046995.2,N
1506473755.8,286046997.3,N
1506473775.7,286046995.6,N
1506473795.5,286046996.6,N
1506473815.3,286046993.8,N
1506473835.2,286046995.1,N
1506473855.9,286046997.4,N
1506473875.7,286046995.0,N
1506473895.6,286046996.5,N
1506473915.4,286046998.7,N
1506473935.2,286047000.4,N
1506473955.0,286046999.7,N
1506473955.9,286046999.7,N
1506473975.8,286047001.6,N
1506473995.6,286047002.5,N
